TimeEDT,TemperatureF,Dew PointF,Humidity,Sea Level PressureIn,VisibilityMPH,Wind Direction,Wind SpeedMPH,Gust SpeedMPH,PrecipitationIn,Events,Conditions,WindDirDegrees,DateUTC
12:53 AM,66.9,61.0,81,29.99,10.0,SSE,4.6,-,N/A,,Clear,160,2013-08-07 04:53:00
1:53 AM,66.0,61.0,84,29.99,10.0,SSE,4.6,-,N/A,,Clear,160,2013-08-07 05:53:00
2:53 AM,66.0,61.0,84,30.00,10.0,SSE,4.6,-,N/A,,Scattered Clouds,160,2013-08-07 06:53:00
3:53 AM,64.9,61.0,87,30.00,10.0,SE,4.6,-,N/A,,Mostly Cloudy,140,2013-08-07 07:53:00
4:53 AM,64.0,61.0,90,29.99,10.0,SE,3.5,-,N/A,,Partly Cloudy,130,2013-08-07 08:53:00
5:53 AM,64.0,61.0,90,29.99,10.0,SE,3.5,-,N/A,,Clear,140,2013-08-07 09:53:00
6:53 AM,64.0,62.1,93,29.98,7.0,SSE,5.8,-,N/A,,Mostly Cloudy,160,2013-08-07 10:53:00
7:53 AM,66.0,63.0,90,29.99,5.0,SSE,5.8,-,N/A,,Scattered Clouds,150,2013-08-07 11:53:00
8:53 AM,69.1,64.0,84,30.00,9.0,SSE,5.8,-,N/A,,Scattered Clouds,160,2013-08-07 12:53:00
9:53 AM,71.1,64.9,81,30.00,10.0,SSE,5.8,-,N/A,,Overcast,150,2013-08-07 13:53:00
10:53 AM,73.9,66.0,76,30.00,10.0,South,6.9,-,N/A,,Scattered Clouds,170,2013-08-07 14:53:00
11:53 AM,75.9,68.0,76,30.00,10.0,South,4.6,-,N/A,,Partly Cloudy,170,2013-08-07 15:53:00
12:53 PM,79.0,68.0,69,29.99,10.0,South,8.1,-,N/A,,Scattered Clouds,180,2013-08-07 16:53:00
1:19 PM,80.6,68.0,65,29.99,10.0,South,8.1,-,N/A,,Mostly Cloudy,180,2013-08-07 17:19:00
1:26 PM,80.6,68.0,65,29.99,10.0,South,9.2,-,N/A,,Mostly Cloudy,170,2013-08-07 17:26:00
1:53 PM,82.0,68.0,62,29.97,10.0,South,8.1,-,N/A,,Mostly Cloudy,190,2013-08-07 17:53:00
2:53 PM,82.0,68.0,62,29.96,10.0,South,8.1,-,N/A,,Scattered Clouds,190,2013-08-07 18:53:00
3:53 PM,82.0,68.0,62,29.94,10.0,SSW,11.5,-,N/A,,Partly Cloudy,210,2013-08-07 19:53:00
4:53 PM,79.0,69.1,72,29.94,10.0,South,3.5,-,N/A,,Scattered Clouds,170,2013-08-07 20:53:00
5:53 PM,78.1,68.0,71,29.95,10.0,NW,4.6,-,0.00,,Overcast,320,2013-08-07 21:53:00
6:47 PM,69.8,66.2,88,30.01,6.0,SSW,12.7,25.3,N/A,Rain-Thunderstorm,Light Thunderstorms and Rain,200,2013-08-07 22:47:00
6:53 PM,68.0,66.0,93,29.99,6.0,South,11.5,17.3,N/A,Rain-Thunderstorm,Thunderstorms and Rain,170,2013-08-07 22:53:00
7:53 PM,68.0,66.9,96,29.98,6.0,Calm,Calm,-,0.04,,Scattered Clouds,0,2013-08-07 23:53:00
8:12 PM,66.2,66.2,100,29.97,4.0,ESE,4.6,-,N/A,,Partly Cloudy,110,2013-08-08 00:12:00
8:23 PM,66.2,66.2,100,29.98,2.5,ESE,5.8,-,N/A,,Mostly Cloudy,110,2013-08-08 00:23:00
8:34 PM,66.2,66.2,100,29.99,5.0,SE,5.8,-,N/A,,Mostly Cloudy,130,2013-08-08 00:34:00
8:53 PM,66.9,66.0,97,30.00,10.0,SSE,6.9,-,N/A,,Scattered Clouds,150,2013-08-08 00:53:00
9:14 PM,66.2,66.2,100,30.01,10.0,SSE,9.2,-,N/A,,Mostly Cloudy,160,2013-08-08 01:14:00
9:22 PM,66.2,66.2,100,30.01,10.0,SSE,8.1,-,N/A,,Scattered Clouds,150,2013-08-08 01:22:00
9:53 PM,66.9,66.0,97,30.00,10.0,SSE,8.1,-,N/A,,Mostly Cloudy,160,2013-08-08 01:53:00
10:53 PM,66.9,64.9,93,29.99,10.0,South,6.9,-,N/A,,Mostly Cloudy,170,2013-08-08 02:53:00
11:53 PM,66.9,66.0,97,29.99,10.0,South,5.8,-,N/A,,Partly Cloudy,190,2013-08-08 03:53:00